Weather in Ust-Lamenka

Russia / Tyumen Oblast     56°30′09″N   68°04′03″E
temp.,
°C
wind,
m/s
gust,
m/s
humid.,
%
clouds,
%
prec.,
mm/h
press.,
hPa
HPBL,
m
5 august, thu
thu523:00+18ssw2265100 0.0 101311
02:00+17sw1264100 0.0 101211
05:00+17wnw2283100 0.3 101323
08:00+17ssw118195 0.4 101315
11:00+19se237797 0.4 101271
14:00+23ese346358 0.3 1012699
17:00+26wsw345497 0.4 10101429
20:00+21sse227746 0.0 100921
6 august, fri
fri623:00+17se378996 0.3 1008131
02:00+17s31296100 2.8 1008355
05:00+17se2398100 4.1 100767
08:00+18ssw41095100 0.8 1006336
11:00+26sw345918 0.8 10061213
14:00+28sw355068 0.0 10051860
17:00+27nw345545 0.1 1005918
20:00+20e359011 0.9 100594
7 august, sat
sat723:00+17ese2297100 1.1 100551
02:00+16se2399100 0.9 100469
05:00+16ne1299100 2.6 1004112
08:00+17nne1299100 4.6 1004120
11:00+16n2399100 24.4 1005248
14:00+17wnw349890 10.0 1005268
17:00+18wnw359599 10.2 1005441
20:00+16wsw4799100 0.7 1005421
8 august, sun
sun823:00+16wsw2599100 0.9 1004268
02:00+16sw2399100 0.3 1004208
05:00+16ese2399100 0.3 1005198
08:00+17e2496100 0.0 1007305
11:00+18ene3487100 0.1 1008561
14:00+20nne2372100 0.0 1009879
17:00+20nnw2381100 0.0 1010332
20:00+18nnw369457 0.1 1010135
9 august, mon
mon923:00+17n35965 0.1 101187
02:00+16n379666 0.0 1011134
05:00+15n369711 0.0 1011123
08:00+20n358010 0.0 1012308
11:00+24n44645 0.0 1012973
14:00+26nnw345529 0.1 10131682
17:00+23nnw476916 0.3 1014644
20:00+19nw389085 0.3 1015181